Powrót do katalogu

COSMOS 2251 DEB

AktywnyLEO
NORAD 36453·DEBRIS·🇷🇺 Russia

Wystrzelony Jun 16, 1993 z Plesetsk Cosmodrome

Loading…

Następne Przeloty (najbliższe 24 godziny)

TLE

Starzejące sięSource: Space-Track

Epoka: Sep 8, 2026, 18:08 UTC

1 36453U 93036BBC 26251.75580855  .00002678  00000-0  61726-3 0  9999
2 36453  73.9261 358.8177 0068021 203.7063 308.3144 14.54429330883915

Śledź COSMOS 2251 DEB w czasie rzeczywistym z AllMySat

Download on the App Store